Regional Weather Roundup
Issued by NWS Spokane, WA

Home | Current Version | Previous Version | Text Only | Print | Product List | Glossary On
Versions: 1 2 3 4 5 6 7 8 9 10 11 12 13 14 15 16 17 18 19 20 21 22 23 24 25 26 27 28 29 30 31 32 33 34 35 36 37 38 39 40 41 42 43 44 45 46 47 48 49 50
908
ASUS46 KOTX 221900
RWROTX

Eastern Washington/Northern Idaho Roundup
National Weather Service, Spokane WA
1100 AM PST FRI NOV 22 2019

Note: "fair" indicated few or no clouds below 12,000 feet with no
significant weather and/or obstructions to visibility.

...Northeast Washington and Northern Idaho Panhandle...

CITY           SKY/WX    TMP DP  RH WIND       PRES   REMARKS
Spokane Intl   FOG       30  26  85 CALM      30.24F VSB 1/4
Spokane Downto CLOUDY    31  29  92 E5        30.27F FOG     WCI  26
Coeur d Alene  CLOUDY    31  30  96 N3        30.26S FOG
Deer Park      MOSUNNY   33  27  78 MISG      30.25S
Sandpoint      CLOUDY    32  30  93 CALM      30.27F

...Southeast Washington and southern Idaho Panhandle...

CITY           SKY/WX    TMP DP  RH WIND       PRES   REMARKS
Walla Walla    MOSUNNY   35  31  85 W7        30.28S WCI  29
Pullman/Moscow SUNNY     40  31  70 SE6       30.24S
Lowell           N/A     36  30  79 N5        30.30F

...Columbia Basin...

CITY           SKY/WX    TMP DP  RH WIND       PRES   REMARKS
Ephrata        SUNNY     38  29  70 CALM      30.29R
Moses Lake     PTSUNNY   32  26  78 SW5       30.30S WCI  27
Pasco          FOG       30  28  92 CALM      30.36S VSB 1/4
Hermiston      SUNNY     33  29  85 CALM      30.32S
Pendleton      SUNNY     36  29  75 CALM      30.27S

...East Slopes Cascades...

CITY           SKY/WX    TMP DP  RH WIND       PRES   REMARKS
The Dalles     SUNNY     37  29  72 CALM      30.34S
Yakima         SUNNY     37  23  56 CALM      30.30S
Ellensburg     SUNNY    N/A N/A N/A CALM      30.26S
Wenatchee      SUNNY     32  27  81 CALM      30.29R
Omak           SUNNY     34  26  72 CALM      30.30S
Sunnyside      CLEAR     35  28  76 S3        30.32F

...Southern British Columbia...

CITY           SKY/WX    TMP DP  RH WIND       PRES   REMARKS

...Western Montana...

CITY           SKY/WX    TMP DP  RH WIND       PRES   REMARKS
Kalispell      CLOUDY    32  25  75 SW3       30.22F
Missoula       SUNNY     31  24  75 CALM      30.22F

...Neighboring Cities...

CITY           SKY/WX    TMP DP  RH WIND       PRES   REMARKS
Seattle        FOG       39  36  89 NE5       30.30S VSB 1/2
Portland       MOSUNNY   41  36  82 NW3       30.31S
Boise          SUNNY     44  23  43 CALM      30.25F
Great Falls    SUNNY     42  25  50 SW16      29.95R



USA.gov is the U.S. government's official web portal to all federal, state and local government web resources and services.